Regional Weather Roundup
Issued by NWS

Home | Current Version | Previous Version | Text Only | Print | Product List | Glossary On
Versions: 1 2 3 4 5 6 7 8 9 10 11 12 13 14 15 16 17 18 19 20 21 22 23 24 25 26 27 28 29 30 31 32 33 34 35 36 37 38 39 40 41 42 43 44 45 46 47 48 49 50
000
ASUS43 KDTX 221201
RWRMI
MICHIGAN HOURLY REGIONAL WEATHER ROUNDUP
NATIONAL WEATHER SERVICE DETROIT/PONTIAC MI
800 AM EDT THU JUN 22 2017

NOTE: "FAIR" INDICATES FEW OR NO CLOUDS BELOW 12,000 FEET WITH NO
SIGNIFICANT WEATHER AND/OR OBSTRUCTION TO VISIBILITY.

MIZ047>049-052>055-059>063-066>070-074>076-081>083-221300-
SOUTHEAST LOWER MICHIGAN

CITY           SKY/WX    TMP DP  RH WIND       PRES   REMARKS
ADRIAN         CLOUDY    65  56  72 SW5       29.92F
6HR MIN TEMP:  60; 6HR MAX TEMP:  65;

ALMA           LGT RAIN  64  57  77 CALM      29.89R
ANN ARBOR      FAIR      65  60  84 E3        29.92S
BAD AXE        HVY RAIN  60  57  89 S8        29.95R
6HR MIN TEMP:  58; 6HR MAX TEMP:  62;

CARO           LGT RAIN  63  57  81 NW14G22   29.90R
DETROIT CITY   CLOUDY    67  58  72 S8        29.93R
6HR MIN TEMP:  62; 6HR MAX TEMP:  67;

DETROIT        LGT RAIN  65  62  90 SE9       29.92F
6HR MIN TEMP:  63; 6HR MAX TEMP:  68; 6HR PCP:  0.29;

FLINT          CLOUDY    66  56  70 S9        29.88S
6HR MIN TEMP:  56; 6HR MAX TEMP:  66; 6HR PCP:  0.01;

GROSSE ILE     CLOUDY    67  62  83 SE7       29.92F
6HR MIN TEMP:  64; 6HR MAX TEMP:  70; 6HR PCP:  0.64;

HILLSDALE      CLOUDY    64  57  77 SW8       29.92S
HOWELL         MOSUNNY   67  54  61 SW5       29.91S
6HR MIN TEMP:  58; 6HR MAX TEMP:  67;


CITY           SKY/WX    TMP DP  RH WIND       PRES   REMARKS
JACKSON        FAIR      70  59  68 S6        29.90S
6HR MIN TEMP:  64; 6HR MAX TEMP:  70;

LAMBERTVILLE   CLOUDY    69  60  74 SW5       29.91S
6HR MIN TEMP:  59; 6HR MAX TEMP:  69;

LANSING        CLOUDY    70  54  56 S13G20    29.89R
6HR MIN TEMP:  64; 6HR MAX TEMP:  70;

LAPEER         NOT AVBL
MASON          CLOUDY    67  56  67 S7        29.90S
MONROE         FAIR      70  59  68 E3        29.92R
6HR MIN TEMP:  62; 6HR MAX TEMP:  70;

MT. CLEMENS    CLOUDY    68  62  79 SE9       29.92R
6HR MIN TEMP:  58; 6HR MAX TEMP:  68;

PONTIAC        CLOUDY    66  57  72 S10       29.90F
6HR MIN TEMP:  62; 6HR MAX TEMP:  66;

PORT HOPE        N/A     62  57  83 S13G20    29.86F
6HR MIN TEMP:  62; 6HR MAX TEMP:  65; 6HR PCP:  0.06;

PORT HURON     CLOUDY    63  54  72 S6        29.93F
TRI CITIES     CLOUDY    63  59  87 S7        29.87R
6HR MIN TEMP:  61; 6HR MAX TEMP:  65; 6HR PCP:  0.36;

MIDLAND        LGT RAIN  60  58  92 CALM      29.87F
6HR MIN TEMP:  55; 6HR MAX TEMP:  65; 6HR PCP:  0.27;

TROY           MOSUNNY   68  55  64 S7        29.93F
SAGINAW HB     CLOUDY    63  54  72 CALM      29.88R
$$
MIZ043>046-050>051-056>058-064>065-071>073-077>080-221300-
SOUTHWEST LOWER MICHIGAN

CITY           SKY/WX    TMP DP  RH WIND       PRES   REMARKS
BATTLE CREEK   CLOUDY    71  63  75 SW9       29.90R
6HR MIN TEMP:  66; 6HR MAX TEMP:  71;

BENTON HARBOR  LGT RAIN  76  65  68 SW10G20   29.86S
6HR MIN TEMP:  68; 6HR MAX TEMP:  76; 6HR PCP: TRACE;

BIG RAPIDS     HVY RAIN  61  58  92 CALM      29.86R
6HR MIN TEMP:  55; 6HR MAX TEMP:  64; 6HR PCP:  0.75;

COLDWATER      CLOUDY    71  64  78 SW8       29.91S
6HR MIN TEMP:  66; 6HR MAX TEMP:  71;

FREMONT        HVY RAIN  65  61  87 N6        29.86R
HOLLAND        CLOUDY    77  67  71 SW18G26   29.86R
6HR MIN TEMP:  64; 6HR MAX TEMP:  77;

GRAND RAPIDS   CLOUDY    72  64  76 S12       29.86R
6HR MIN TEMP:  62; 6HR MAX TEMP:  72;

IONIA          FAIR      69  58  67 SW10      29.86R
6HR MIN TEMP:  61; 6HR MAX TEMP:  69;

KALAMAZOO      FAIR      72  62  71 SW10      29.89R
6HR MIN TEMP:  66; 6HR MAX TEMP:  72;

LUDINGTON      RAIN      65  64  99 S13       29.80F
6HR MIN TEMP:  59; 6HR MAX TEMP:  66; 6HR PCP:  1.18;

MARSHALL       FAIR      72  64  74 SW10G17   29.89S
6HR MIN TEMP:  65; 6HR MAX TEMP:  72;

MOUNT PLEASANT RAIN      62  59  90 CALM      29.85F
6HR MIN TEMP:  56; 6HR MAX TEMP:  64; 6HR PCP:  0.83;

MUSKEGON       CLOUDY    73  66  78 S16G22    29.85R
6HR MIN TEMP:  64; 6HR MAX TEMP:  74;

SOUTH HAVEN    CLOUDY    76  67  71 SW10G23   29.86R
$$
MIZ016>042-221300-
NORTHERN LOWER MICHIGAN

CITY           SKY/WX    TMP DP  RH WIND       PRES   REMARKS
ALPENA         RAIN      60  59  96 VRB3      29.88R FOG
6HR MIN TEMP:  51; 6HR MAX TEMP:  60; 6HR PCP:  0.10;

BEAVER ISLAND  RAIN      60  57  91 S9        29.77S
6HR MIN TEMP:  58; 6HR MAX TEMP:  63;

BELLAIRE       RAIN      61  59  91 CALM      29.80S
6HR MIN TEMP:  50; 6HR MAX TEMP:  65;

CADILLAC       LGT RAIN  61  60  97 S7        29.83R
CHARLEVOIX     HVY RAIN  60  60 100 SE6       29.81S
6HR MIN TEMP:  56; 6HR MAX TEMP:  60;

FRANKFORT      CLOUDY    65  61  85 S8        29.78S
GAYLORD        HVY RAIN  60  56  86 S15G23    29.83S FOG
6HR MIN TEMP:  54; 6HR MAX TEMP:  62; 6HR PCP:  0.33;

GRAYLING       LGT RAIN  59  58  96 SE6       29.84F
6HR MIN TEMP:  47; 6HR MAX TEMP:  61;

HARBOR SPRINGS RAIN      60  59  97 NE3       29.79S
HOUGHTON LAKE  LGT RAIN  59  58  96 SE7       29.84F
6HR MIN TEMP:  53; 6HR MAX TEMP:  61; 6HR PCP:  0.38;

MANISTEE       LGT RAIN  64  62  93 VRB5      29.79F
OSCODA         RAIN      63  60  90 S9        29.89R
6HR MIN TEMP:  57; 6HR MAX TEMP:  63; 6HR PCP:  0.01;

PELLSTON       CLOUDY    58  54  86 SE6       29.80R
6HR MIN TEMP:  51; 6HR MAX TEMP:  59; 6HR PCP:  0.02;

ROGERS CITY    LGT RAIN  60  56  89 S10       29.83F
TRAVERSE CITY  CLOUDY    62  60  93 CALM      29.79R
6HR MIN TEMP:  55; 6HR MAX TEMP:  63; 6HR PCP:  0.04;

$$
MIZ007>008-015-221300-
EASTERN UPPER MICHIGAN

CITY           SKY/WX    TMP DP  RH WIND       PRES   REMARKS
KINROSS        CLOUDY    59  57  93 SE10      29.78F
6HR MIN TEMP:  53; 6HR MAX TEMP:  59;

MACKINAC ISLAN CLOUDY    62  54  74 SE9G18    29.79F
6HR MIN TEMP:  56; 6HR MAX TEMP:  63;

NEWBERRY       CLOUDY    58  56  95 S5        29.77R
6HR MIN TEMP:  53; 6HR MAX TEMP:  58; 6HR PCP:  0.01;

S. S. MARIE    CLOUDY    58  56  93 E6        29.78F
6HR MIN TEMP:  54; 6HR MAX TEMP:  58; 6HR PCP:  0.01;

MUNISING         N/A     60  56  86 S8        29.71R
6HR MIN TEMP:  58; 6HR MAX TEMP:  63; 6HR PCP:  0.08;

$$
MIZ004>006-011>014-085-221300-
CENTRAL UPPER MICHIGAN

CITY           SKY/WX    TMP DP  RH WIND       PRES   REMARKS
MANISTIQUE     CLOUDY    58  55  89 SE8       29.75S
6HR MIN TEMP:  57; 6HR MAX TEMP:  58; 6HR PCP:  0.01;

ESCANABA       CLOUDY    63  61  93 S7        29.73S
6HR MIN TEMP:  61; 6HR MAX TEMP:  64; 6HR PCP: TRACE;

MENOMINEE      CLOUDY    66  62  87 SW8       29.73F
6HR MIN TEMP:  63; 6HR MAX TEMP:  66; 6HR PCP: TRACE;

SAWYER-GWINN   PTSUNNY   61  54  77 S9        29.73R
$$
MIZ001>003-009>011-084-221300-
WESTERN UPPER MICHIGAN

CITY           SKY/WX    TMP DP  RH WIND       PRES   REMARKS
IRON MOUNTAIN  CLOUDY    62  52  69 S5        29.72R
6HR MIN TEMP:  59; 6HR MAX TEMP:  62; 6HR PCP: TRACE;

HOUGHTON       PTSUNNY   60  56  86 SW6       29.64S
6HR MIN TEMP:  53; 6HR MAX TEMP:  60; 6HR PCP:  0.07;

COPPER HARBOR    N/A     60  54  80 SW10      29.64R
6HR MIN TEMP:  55; 6HR MAX TEMP:  60; 6HR PCP:  0.05;

IRONWOOD       PTSUNNY   67  59  75 SW9       29.69S
6HR MIN TEMP:  64; 6HR MAX TEMP:  67;

$$

ABBREVIATIONS USED IN REMARKS
   TC - TEMPERATURE IN CELSIUS
  WCI - WIND CHILL INDEX
   HX - HEAT INDEX
  VSB - VISIBILITY





USA.gov is the U.S. government's official web portal to all federal, state and local government web resources and services.